TAP1701 LPPR-LPMA

Flight info

Callsign TAP1701
Flight time 1h 52m
Altitude 37000
Route ASMOV DCT DIRMA DCT VABEM DCT LIDRO
Aircraft A320/M-SDE3FGHIRWY/LB1

Departure

Time 2026-05-01 10:08
Airport Francisco de Sá Carneiro Airport (LPPR)

Arrival

Time 2026-05-01 12:00
Airport Cristiano Ronaldo International Airport (LPMA)
Time Latitude Longitude Altitude Speed Heading
2026-05-01 09:09 41.23686 -8.67249 243 ft 0 kts 79°
2026-05-01 10:00 41.23684 -8.67264 242 ft 4 kts 79°
2026-05-01 10:00 41.23679 -8.67299 242 ft 3 kts 79°
2026-05-01 10:01 41.23676 -8.67328 242 ft 4 kts 103°
2026-05-01 10:01 41.23688 -8.67354 242 ft 4 kts 154°
2026-05-01 10:01 41.23695 -8.67359 242 ft 0 kts 160°
2026-05-01 10:05 41.23675 -8.67377 240 ft 8 kts 227°
2026-05-01 10:05 41.23635 -8.67466 238 ft 14 kts 255°
2026-05-01 10:06 41.23616 -8.67578 239 ft 9 kts 258°
2026-05-01 10:06 41.23603 -8.67666 234 ft 8 kts 258°
2026-05-01 10:06 41.23602 -8.67671 233 ft 0 kts 258°
2026-05-01 10:07 41.23594 -8.67721 232 ft 12 kts 258°
2026-05-01 10:07 41.23625 -8.67815 229 ft 11 kts 342°
2026-05-01 10:07 41.23647 -8.67821 228 ft 0 kts 348°
2026-05-01 10:07 41.23656 -8.67824 228 ft 7 kts 348°
2026-05-01 10:08 41.24672 -8.68090 207 ft 138 kts 348°
2026-05-01 10:08 41.25745 -8.68353 473 ft 162 kts 348°
2026-05-01 10:08 41.26850 -8.68617 1217 ft 161 kts 349°
2026-05-01 10:09 41.27992 -8.68922 1715 ft 177 kts 347°
2026-05-01 10:09 41.29268 -8.69281 2090 ft 197 kts 347°
2026-05-01 10:09 41.30669 -8.69664 2471 ft 214 kts 348°
2026-05-01 10:09 41.32208 -8.70077 2803 ft 238 kts 349°
2026-05-01 10:10 41.33916 -8.70514 3287 ft 261 kts 349°
2026-05-01 10:10 41.35762 -8.70964 3926 ft 274 kts 349°
2026-05-01 10:10 41.39091 -8.73120 5781 ft 279 kts 308°
2026-05-01 10:11 41.40007 -8.75372 6655 ft 279 kts 283°
2026-05-01 10:11 41.40119 -8.77919 7488 ft 277 kts 257°
2026-05-01 10:11 41.39423 -8.80284 8362 ft 275 kts 234°
2026-05-01 10:11 41.38088 -8.82087 9215 ft 275 kts 217°
2026-05-01 10:12 41.36570 -8.83655 10109 ft 278 kts 217°
2026-05-01 10:12 41.35529 -8.84730 10569 ft 284 kts 217°
2026-05-01 10:12 41.31622 -8.88833 11479 ft 324 kts 218°
2026-05-01 10:13 41.29852 -8.90712 12245 ft 327 kts 218°
2026-05-01 10:13 41.28070 -8.92603 13042 ft 329 kts 217°
2026-05-01 10:13 41.26278 -8.94505 13803 ft 332 kts 217°
2026-05-01 10:14 41.22634 -8.98360 15136 ft 337 kts 217°
2026-05-01 10:14 41.20789 -9.00310 15794 ft 340 kts 218°
2026-05-01 10:14 41.18939 -9.02259 16494 ft 341 kts 217°
2026-05-01 10:14 41.17075 -9.04219 17178 ft 343 kts 217°
2026-05-01 10:15 41.15196 -9.06188 17838 ft 345 kts 217°
2026-05-01 10:15 41.13305 -9.08168 18473 ft 348 kts 217°
2026-05-01 10:15 41.11400 -9.10161 19042 ft 350 kts 218°
2026-05-01 10:15 41.09481 -9.12167 19589 ft 353 kts 218°
2026-05-01 10:16 41.07546 -9.14191 20135 ft 355 kts 218°
2026-05-01 10:16 41.05604 -9.16229 20671 ft 357 kts 218°
2026-05-01 10:16 41.01676 -9.20340 21711 ft 362 kts 218°
2026-05-01 10:17 40.99691 -9.22408 22221 ft 365 kts 218°
2026-05-01 10:17 40.95708 -9.26557 23230 ft 369 kts 219°
2026-05-01 10:17 40.93686 -9.28663 23728 ft 371 kts 219°
2026-05-01 10:18 40.89602 -9.32914 24537 ft 376 kts 219°
2026-05-01 10:18 40.88213 -9.34357 24806 ft 377 kts 219°
2026-05-01 10:18 40.86146 -9.36506 25196 ft 379 kts 219°
2026-05-01 10:19 40.84065 -9.38663 25578 ft 381 kts 219°
2026-05-01 10:19 40.81998 -9.40802 25948 ft 383 kts 219°
2026-05-01 10:19 40.79892 -9.42981 26328 ft 386 kts 219°
2026-05-01 10:20 40.75645 -9.47373 27094 ft 389 kts 219°
2026-05-01 10:20 40.73511 -9.49582 27475 ft 391 kts 219°
2026-05-01 10:20 40.71369 -9.51799 27848 ft 392 kts 219°
2026-05-01 10:20 40.69213 -9.54020 28212 ft 394 kts 219°
2026-05-01 10:21 40.67045 -9.56249 28568 ft 397 kts 219°
2026-05-01 10:21 40.62674 -9.60747 29257 ft 401 kts 220°
2026-05-01 10:21 40.60471 -9.63015 29589 ft 403 kts 220°
2026-05-01 10:22 40.56024 -9.67578 30225 ft 407 kts 220°
2026-05-01 10:22 40.51538 -9.72170 30760 ft 410 kts 220°
2026-05-01 10:23 40.49280 -9.74477 31023 ft 412 kts 220°
2026-05-01 10:23 40.44748 -9.79108 31585 ft 413 kts 220°
2026-05-01 10:23 40.42483 -9.81422 31968 ft 411 kts 220°
2026-05-01 10:24 40.38001 -9.85991 32854 ft 405 kts 220°
2026-05-01 10:24 40.33604 -9.90460 33690 ft 400 kts 220°
2026-05-01 10:25 40.29224 -9.94900 34427 ft 397 kts 220°
2026-05-01 10:25 40.24871 -9.99313 35015 ft 395 kts 220°
2026-05-01 10:26 40.22700 -10.01513 35290 ft 394 kts 221°
2026-05-01 10:26 40.20535 -10.03704 35559 ft 394 kts 221°
2026-05-01 10:26 40.16198 -10.08084 36066 ft 393 kts 221°
2026-05-01 10:27 40.11879 -10.12447 36538 ft 392 kts 221°
2026-05-01 10:27 40.07554 -10.16805 36994 ft 392 kts 221°
2026-05-01 10:28 40.05393 -10.18981 37156 ft 392 kts 221°
2026-05-01 10:28 39.98829 -10.25586 37192 ft 403 kts 221°
2026-05-01 10:29 39.92114 -10.32292 37193 ft 406 kts 221°
2026-05-01 10:30 39.83181 -10.41216 37193 ft 406 kts 221°
2026-05-01 10:31 39.74205 -10.50149 37183 ft 406 kts 221°
2026-05-01 10:32 39.67468 -10.56841 37194 ft 406 kts 221°
2026-05-01 10:33 39.58511 -10.65692 37226 ft 403 kts 221°
2026-05-01 10:34 39.51830 -10.72285 37183 ft 401 kts 221°
2026-05-01 10:34 39.47387 -10.76663 37185 ft 401 kts 221°
2026-05-01 10:35 39.40721 -10.83213 37192 ft 401 kts 221°
2026-05-01 10:35 39.36310 -10.87540 37194 ft 401 kts 221°
2026-05-01 10:36 39.29651 -10.94064 37201 ft 401 kts 221°
2026-05-01 10:37 39.25200 -10.98406 37200 ft 400 kts 221°
2026-05-01 10:37 39.18549 -11.04884 37202 ft 399 kts 221°
2026-05-01 10:38 39.14123 -11.09201 37207 ft 399 kts 221°
2026-05-01 10:38 39.09699 -11.13498 37202 ft 398 kts 221°
2026-05-01 10:39 39.05269 -11.17790 37191 ft 398 kts 221°
2026-05-01 10:39 39.00864 -11.22050 37191 ft 398 kts 221°
2026-05-01 10:40 38.96434 -11.26329 37195 ft 399 kts 221°
2026-05-01 10:40 38.91999 -11.30599 37197 ft 399 kts 221°
2026-05-01 10:41 38.87574 -11.34879 37215 ft 397 kts 221°
2026-05-01 10:42 38.80977 -11.41218 37207 ft 394 kts 221°
2026-05-01 10:42 38.76601 -11.45417 37173 ft 392 kts 221°
2026-05-01 10:43 38.72230 -11.49600 37186 ft 392 kts 221°
2026-05-01 10:43 38.67851 -11.53776 37192 ft 392 kts 221°
2026-05-01 10:44 38.63482 -11.57956 37192 ft 392 kts 221°
2026-05-01 10:44 38.59109 -11.62131 37192 ft 392 kts 221°
2026-05-01 10:45 38.54763 -11.66268 37195 ft 392 kts 221°
2026-05-01 10:45 38.50390 -11.70426 37176 ft 392 kts 221°
2026-05-01 10:46 38.46021 -11.74581 37186 ft 392 kts 221°
2026-05-01 10:46 38.41647 -11.78729 37187 ft 392 kts 221°
2026-05-01 10:47 38.37263 -11.82862 37189 ft 392 kts 221°
2026-05-01 10:47 38.32876 -11.86994 37190 ft 392 kts 221°
2026-05-01 10:48 38.28498 -11.91130 37187 ft 392 kts 221°
2026-05-01 10:48 38.24126 -11.95259 37165 ft 391 kts 222°
2026-05-01 10:49 38.19782 -11.99350 37179 ft 391 kts 222°
2026-05-01 10:49 38.15401 -12.03450 37184 ft 391 kts 222°
2026-05-01 10:50 38.11024 -12.07546 37195 ft 390 kts 221°
2026-05-01 10:50 38.06665 -12.11631 37192 ft 389 kts 221°
2026-05-01 10:51 38.02308 -12.15715 37178 ft 389 kts 221°
2026-05-01 10:51 37.97955 -12.19793 37158 ft 389 kts 221°
2026-05-01 10:52 37.93592 -12.23857 37162 ft 389 kts 221°
2026-05-01 10:52 37.89221 -12.27902 37166 ft 389 kts 221°
2026-05-01 10:53 37.84852 -12.31957 37166 ft 389 kts 221°
2026-05-01 10:53 37.80516 -12.35984 37169 ft 389 kts 221°
2026-05-01 10:54 37.76152 -12.40044 37172 ft 390 kts 221°
2026-05-01 10:54 37.71779 -12.44098 37191 ft 390 kts 221°
2026-05-01 10:55 37.67395 -12.48136 37184 ft 390 kts 221°
2026-05-01 10:55 37.63013 -12.52167 37183 ft 389 kts 221°
2026-05-01 10:56 37.58637 -12.56201 37186 ft 389 kts 221°
2026-05-01 10:56 37.54254 -12.60221 37185 ft 389 kts 221°
2026-05-01 10:57 37.49872 -12.64240 37147 ft 389 kts 221°
2026-05-01 10:57 37.45496 -12.68256 37161 ft 389 kts 221°
2026-05-01 10:58 37.41114 -12.72271 37171 ft 390 kts 221°
2026-05-01 10:58 37.36751 -12.76257 37173 ft 390 kts 221°
2026-05-01 10:59 37.32366 -12.80263 37182 ft 389 kts 220°
2026-05-01 10:59 37.27981 -12.84259 37180 ft 390 kts 220°
2026-05-01 11:00 37.23590 -12.88255 37146 ft 390 kts 220°
2026-05-01 11:00 37.19193 -12.92248 37153 ft 390 kts 220°
2026-05-01 11:01 37.14786 -12.96239 37162 ft 391 kts 220°
2026-05-01 11:01 37.10368 -13.00236 37166 ft 391 kts 220°
2026-05-01 11:02 37.05947 -13.04231 37173 ft 392 kts 220°
2026-05-01 11:02 37.01526 -13.08222 37169 ft 391 kts 220°
2026-05-01 11:03 36.97110 -13.12208 37128 ft 391 kts 220°
2026-05-01 11:03 36.92713 -13.16179 37149 ft 393 kts 220°
2026-05-01 11:04 36.88271 -13.20183 37152 ft 394 kts 220°
2026-05-01 11:04 36.83815 -13.24180 37158 ft 395 kts 220°
2026-05-01 11:05 36.79351 -13.28177 37164 ft 395 kts 220°
2026-05-01 11:05 36.74890 -13.32168 37165 ft 395 kts 220°
2026-05-01 11:06 36.70427 -13.36159 37134 ft 395 kts 220°
2026-05-01 11:06 36.66713 -13.39480 37133 ft 396 kts 220°
2026-05-01 11:07 36.59224 -13.46157 37150 ft 397 kts 220°
2026-05-01 11:07 36.54728 -13.50154 37164 ft 398 kts 219°
2026-05-01 11:08 36.50981 -13.53477 37165 ft 398 kts 220°
2026-05-01 11:09 36.44224 -13.59461 37136 ft 398 kts 220°
2026-05-01 11:09 36.39717 -13.63459 37140 ft 398 kts 220°
2026-05-01 11:10 36.32932 -13.69460 37154 ft 399 kts 220°
2026-05-01 11:10 36.28402 -13.73452 37159 ft 400 kts 220°
2026-05-01 11:11 36.23862 -13.77439 37169 ft 400 kts 220°
2026-05-01 11:11 36.19325 -13.81427 37168 ft 400 kts 220°
2026-05-01 11:12 36.14790 -13.85407 37145 ft 400 kts 220°
2026-05-01 11:12 36.10248 -13.89400 37160 ft 401 kts 220°
2026-05-01 11:13 36.05698 -13.93395 37165 ft 401 kts 220°
2026-05-01 11:13 36.01177 -13.97355 37167 ft 401 kts 220°
2026-05-01 11:14 35.96620 -14.01333 37172 ft 401 kts 220°
2026-05-01 11:14 35.92054 -14.05304 37174 ft 401 kts 220°
2026-05-01 11:15 35.87487 -14.09269 37144 ft 402 kts 220°
2026-05-01 11:15 35.82915 -14.13246 37159 ft 402 kts 220°
2026-05-01 11:16 35.78341 -14.17222 37166 ft 403 kts 220°
2026-05-01 11:16 35.73759 -14.21196 37172 ft 403 kts 220°
2026-05-01 11:17 35.69172 -14.25167 37175 ft 403 kts 220°
2026-05-01 11:17 35.64589 -14.29126 37172 ft 403 kts 220°
2026-05-01 11:18 35.60000 -14.33075 37144 ft 403 kts 220°
2026-05-01 11:18 35.55409 -14.37025 37151 ft 403 kts 220°
2026-05-01 11:19 35.50817 -14.40984 37156 ft 404 kts 220°
2026-05-01 11:19 35.46247 -14.44927 37162 ft 404 kts 220°
2026-05-01 11:20 35.41646 -14.48880 37167 ft 404 kts 220°
2026-05-01 11:20 35.37030 -14.52833 37174 ft 405 kts 220°
2026-05-01 11:21 35.32410 -14.56784 37139 ft 405 kts 220°
2026-05-01 11:21 35.27790 -14.60735 37145 ft 405 kts 220°
2026-05-01 11:22 35.23167 -14.64675 37152 ft 405 kts 220°
2026-05-01 11:22 35.18540 -14.68622 37157 ft 405 kts 220°
2026-05-01 11:23 35.13914 -14.72563 37163 ft 405 kts 220°
2026-05-01 11:23 35.09286 -14.76489 37160 ft 405 kts 220°
2026-05-01 11:24 35.04653 -14.80418 37161 ft 405 kts 220°
2026-05-01 11:25 34.97696 -14.86286 37161 ft 405 kts 220°
2026-05-01 11:25 34.90748 -14.92176 37169 ft 405 kts 220°
2026-05-01 11:26 34.83796 -14.98047 37170 ft 406 kts 220°
2026-05-01 11:27 34.79180 -15.01933 37138 ft 406 kts 221°
2026-05-01 11:27 34.74536 -15.05843 37146 ft 407 kts 220°
2026-05-01 11:28 34.69877 -15.09752 37155 ft 407 kts 220°
2026-05-01 11:28 34.65218 -15.13660 37159 ft 407 kts 220°
2026-05-01 11:29 34.58226 -15.19515 37165 ft 407 kts 220°
2026-05-01 11:30 34.51223 -15.25358 37139 ft 408 kts 220°
2026-05-01 11:30 34.46546 -15.29255 37149 ft 408 kts 220°
2026-05-01 11:31 34.41861 -15.33156 37157 ft 409 kts 220°
2026-05-01 11:31 34.37176 -15.37054 37163 ft 409 kts 220°
2026-05-01 11:32 34.32480 -15.40949 37168 ft 409 kts 220°
2026-05-01 11:32 34.27818 -15.44820 37174 ft 409 kts 220°
2026-05-01 11:33 34.23132 -15.48692 37059 ft 403 kts 220°
2026-05-01 11:33 34.20844 -15.50571 36761 ft 394 kts 220°
2026-05-01 11:33 34.18586 -15.52429 36124 ft 393 kts 220°
2026-05-01 11:33 34.16321 -15.54304 35416 ft 394 kts 220°
2026-05-01 11:34 34.14060 -15.56180 34785 ft 393 kts 220°
2026-05-01 11:34 34.11820 -15.58034 34335 ft 388 kts 220°
2026-05-01 11:34 34.09603 -15.59865 33812 ft 384 kts 220°
2026-05-01 11:34 34.07404 -15.61676 33334 ft 380 kts 220°
2026-05-01 11:35 34.05235 -15.63457 32851 ft 375 kts 220°
2026-05-01 11:35 34.03086 -15.65220 32382 ft 371 kts 220°
2026-05-01 11:35 34.00962 -15.66962 31919 ft 367 kts 220°
2026-05-01 11:35 33.98859 -15.68690 31450 ft 364 kts 220°
2026-05-01 11:36 33.96780 -15.70398 30978 ft 360 kts 220°
2026-05-01 11:36 33.94723 -15.72087 30557 ft 356 kts 220°
2026-05-01 11:36 33.92683 -15.73761 30096 ft 353 kts 220°
2026-05-01 11:36 33.90666 -15.75416 29635 ft 349 kts 220°
2026-05-01 11:37 33.88673 -15.77048 29214 ft 344 kts 220°
2026-05-01 11:37 33.86711 -15.78654 28803 ft 339 kts 220°
2026-05-01 11:37 33.84772 -15.80241 28399 ft 334 kts 220°
2026-05-01 11:37 33.82861 -15.81803 28012 ft 331 kts 220°
2026-05-01 11:38 33.80990 -15.83336 27630 ft 328 kts 220°
2026-05-01 11:38 33.79109 -15.84876 27251 ft 326 kts 219°
2026-05-01 11:38 33.77238 -15.86407 26892 ft 325 kts 219°
2026-05-01 11:38 33.75376 -15.87932 26525 ft 323 kts 219°
2026-05-01 11:39 33.73520 -15.89447 26148 ft 321 kts 219°
2026-05-01 11:39 33.71677 -15.90948 25773 ft 319 kts 219°
2026-05-01 11:39 33.69844 -15.92441 25399 ft 318 kts 219°
2026-05-01 11:39 33.68019 -15.93930 24974 ft 316 kts 219°
2026-05-01 11:40 33.66201 -15.95408 24551 ft 315 kts 218°
2026-05-01 11:40 33.64369 -15.96849 24111 ft 315 kts 217°
2026-05-01 11:40 33.62524 -15.98264 23659 ft 315 kts 217°
2026-05-01 11:40 33.60674 -15.99665 23167 ft 313 kts 217°
2026-05-01 11:41 33.58834 -16.01057 22717 ft 311 kts 217°
2026-05-01 11:41 33.57012 -16.02438 22276 ft 309 kts 217°
2026-05-01 11:41 33.55199 -16.03818 21838 ft 308 kts 217°
2026-05-01 11:41 33.53403 -16.05193 21403 ft 306 kts 217°
2026-05-01 11:42 33.51612 -16.06567 20970 ft 305 kts 217°
2026-05-01 11:42 33.49829 -16.07935 20538 ft 304 kts 217°
2026-05-01 11:42 33.48049 -16.09298 20114 ft 304 kts 217°
2026-05-01 11:42 33.46269 -16.10658 19677 ft 303 kts 217°
2026-05-01 11:43 33.44492 -16.12017 19241 ft 303 kts 217°
2026-05-01 11:43 33.42716 -16.13375 18828 ft 303 kts 217°
2026-05-01 11:43 33.40939 -16.14733 18405 ft 303 kts 217°
2026-05-01 11:44 33.37391 -16.17436 17506 ft 301 kts 216°
2026-05-01 11:44 33.35626 -16.18778 17095 ft 300 kts 216°
2026-05-01 11:44 33.33871 -16.20114 16694 ft 299 kts 216°
2026-05-01 11:44 33.32117 -16.21449 16280 ft 299 kts 216°
2026-05-01 11:45 33.30362 -16.22783 15875 ft 299 kts 216°
2026-05-01 11:45 33.28609 -16.24115 15469 ft 299 kts 216°
2026-05-01 11:45 33.26879 -16.25428 15070 ft 299 kts 216°
2026-05-01 11:45 33.25123 -16.26762 14666 ft 299 kts 216°
2026-05-01 11:46 33.23370 -16.28096 14261 ft 299 kts 216°
2026-05-01 11:46 33.21615 -16.29429 13839 ft 299 kts 216°
2026-05-01 11:46 33.19859 -16.30762 13405 ft 299 kts 216°
2026-05-01 11:46 33.18110 -16.32090 12993 ft 297 kts 216°
2026-05-01 11:47 33.16370 -16.33411 12584 ft 296 kts 216°
2026-05-01 11:47 33.14635 -16.34725 12176 ft 295 kts 215°
2026-05-01 11:47 33.12905 -16.36034 11762 ft 294 kts 215°
2026-05-01 11:47 33.11182 -16.37338 11346 ft 293 kts 215°
2026-05-01 11:48 33.09462 -16.38639 10930 ft 293 kts 215°
2026-05-01 11:48 33.07751 -16.39933 10515 ft 292 kts 214°
2026-05-01 11:48 33.06040 -16.41225 10209 ft 288 kts 214°
2026-05-01 11:48 33.04382 -16.42477 10072 ft 277 kts 214°
2026-05-01 11:49 33.02760 -16.43702 9663 ft 277 kts 214°
2026-05-01 11:49 33.01147 -16.44919 9358 ft 272 kts 214°
2026-05-01 11:49 32.99555 -16.46118 8976 ft 270 kts 214°
2026-05-01 11:49 32.97976 -16.47309 8555 ft 266 kts 214°
2026-05-01 11:50 32.96425 -16.48480 7922 ft 262 kts 214°
2026-05-01 11:50 32.94894 -16.49637 7325 ft 257 kts 214°
2026-05-01 11:50 32.93394 -16.50768 6875 ft 256 kts 214°
2026-05-01 11:50 32.92022 -16.52059 6461 ft 254 kts 223°
2026-05-01 11:51 32.90712 -16.53463 5996 ft 254 kts 222°
2026-05-01 11:51 32.89398 -16.54864 5558 ft 254 kts 222°
2026-05-01 11:51 32.88105 -16.56243 5374 ft 243 kts 222°
2026-05-01 11:51 32.86873 -16.57555 5205 ft 233 kts 222°
2026-05-01 11:52 32.85682 -16.58824 5043 ft 228 kts 222°
2026-05-01 11:52 32.84394 -16.59969 4707 ft 235 kts 216°
2026-05-01 11:52 32.83042 -16.61089 4091 ft 237 kts 217°
2026-05-01 11:52 32.81691 -16.62207 3541 ft 233 kts 216°
2026-05-01 11:53 32.80403 -16.63271 3306 ft 217 kts 216°
2026-05-01 11:53 32.79211 -16.64257 3173 ft 201 kts 216°
2026-05-01 11:53 32.78099 -16.65176 3085 ft 189 kts 216°
2026-05-01 11:53 32.77047 -16.66045 3019 ft 178 kts 216°
2026-05-01 11:54 32.76037 -16.66879 2689 ft 178 kts 216°
2026-05-01 11:54 32.75028 -16.67716 2343 ft 175 kts 216°
2026-05-01 11:54 32.74056 -16.68519 2012 ft 166 kts 215°
2026-05-01 11:54 32.73147 -16.69269 1722 ft 151 kts 215°
2026-05-01 11:55 32.72326 -16.69949 1497 ft 138 kts 214°
2026-05-01 11:55 32.71811 -16.70369 1402 ft 135 kts 216°
2026-05-01 11:55 32.71047 -16.70995 1353 ft 132 kts 217°
2026-05-01 11:55 32.70306 -16.71635 1396 ft 131 kts 218°
2026-05-01 11:56 32.69560 -16.72299 1410 ft 133 kts 216°
2026-05-01 11:56 32.68801 -16.72919 1517 ft 132 kts 218°
2026-05-01 11:56 32.68057 -16.73558 1589 ft 132 kts 217°
2026-05-01 11:56 32.67316 -16.74193 1618 ft 133 kts 217°
2026-05-01 11:57 32.66563 -16.74835 1664 ft 132 kts 218°
2026-05-01 11:57 32.65817 -16.75467 1579 ft 134 kts 218°
2026-05-01 11:57 32.65057 -16.76093 1475 ft 134 kts 217°
2026-05-01 11:57 32.64303 -16.76725 1328 ft 131 kts 217°
2026-05-01 11:58 32.63710 -16.77527 1240 ft 131 kts 243°
2026-05-01 11:58 32.63531 -16.78577 1135 ft 134 kts 273°
2026-05-01 11:58 32.64690 -16.80181 1001 ft 142 kts 342°
2026-05-01 11:59 32.65675 -16.80339 915 ft 145 kts 358°
2026-05-01 11:59 32.66691 -16.80256 787 ft 145 kts 12°
2026-05-01 11:59 32.67630 -16.79843 611 ft 144 kts 35°
2026-05-01 12:00 32.69071 -16.78265 209 ft 141 kts 41°
2026-05-01 12:00 32.69725 -16.77521 176 ft 109 kts 45°
2026-05-01 12:00 32.70242 -16.76917 176 ft 37 kts 45°
2026-05-01 12:01 32.70398 -16.76807 176 ft 14 kts 37°
2026-05-01 12:01 32.70364 -16.76779 176 ft 11 kts 216°
2026-05-01 12:01 32.70287 -16.76863 176 ft 18 kts 225°
2026-05-01 12:01 32.70193 -16.76972 176 ft 20 kts 224°
2026-05-01 12:02 32.70089 -16.77094 176 ft 22 kts 224°
2026-05-01 12:02 32.69956 -16.77179 176 ft 23 kts 181°
2026-05-01 12:02 32.69808 -16.77216 176 ft 22 kts 222°
2026-05-01 12:02 32.69696 -16.77353 176 ft 23 kts 226°
2026-05-01 12:03 32.69592 -16.77483 176 ft 20 kts 226°
2026-05-01 12:03 32.69504 -16.77593 176 ft 19 kts 226°
2026-05-01 12:03 32.69417 -16.77701 176 ft 11 kts 225°
2026-05-01 12:03 32.69373 -16.77679 176 ft 6 kts 139°
2026-05-01 12:04 32.69362 -16.77668 176 ft 0 kts 139°